カタログに戻る

THOR ABLESTAR DEB

運用中LEO
NORAD 141·DEBRIS·🇺🇸 United States

打ち上げ Jun 29, 1961 から Cape Canaveral Space Force Station

Loading…

次のパス (今後24時間)

TLE

最新Source: Space-Track

元期: Sep 7, 2026, 06:46 UTC

1 00141U 61015AB  26250.28257196  .00000149  00000-0  18506-3 0  9991
2 00141  66.5882 202.5621 0054809 345.2921  14.6557 13.89060391283228

AllMySatでTHOR ABLESTAR DEBをリアルタイム追跡

Download on the App Store